Weather History for Chevak, AK

Change the Weather History Date:

Sunday, October 7, 2012

  Actual Average (PAHP) Record (PAHP)
Temperature  
Mean Temperature 38 °F -  
Max Temperature 42 °F 38 °F 57 °F (2007)
Min Temperature 35 °F 31 °F 28 °F (2000)
Degree Days  
Heating Degree Days 26    
Moisture  
Dew Point 36 °F    
Average Humidity 96    
Maximum Humidity 100    
Minimum Humidity 85    
Precipitation  
Precipitation 0.01 in - - ()
Sea Level Pressure  
Sea Level Pressure 30.22 in    
Wind  
Wind Speed 10 mph (NE)    
Max Wind Speed 24 mph    
Max Gust Speed 30 mph    
Visibility 8 miles    
Events Rain    
Averages and records for this station are not official NWS values.
T = Trace of Precipitation, MM = Missing Value Source: NWS Daily Summary

Daily Weather History Graph

Daily Weather History Graph

Search for Another Location

Airport:

Trip Planner

Search our weather history database for the weather conditions in past years. The results will help you decide how hot, cold, wet, or windy it might be!

Date:

Astronomy

Oct. 07, 2012 Rise Set
Actual Time 9:26 AM AKDT 8:12 PM AKDT
Civil Twilight 8:42 AM AKDT 8:55 PM AKDT
Nautical Twilight 7:52 AM AKDT 9:46 PM AKDT
Astronomical Twilight 6:59 AM AKDT 10:38 PM AKDT
Moon No Moon Rise 5:25 PM AKDT (10/7)
Length of Visible Light 12h 13m
Length of Day
10h 45m
Waning Gibbous, 55% of the Moon is Illuminated
Oct 7
Waning Gibbous
Oct 7
Last Quarter
Oct 15
New
Oct 21
First Quarter
Oct 29
Full

Hourly Weather History & Observations

Time (AKDT) Temp. Windchill Dew Point Humidity Pressure Visibility Wind Dir Wind Speed Gust Speed Precip Events Conditions
12:57 AM 37.0 °F 34.5 °F 36.0 °F 96% 30.19 in 6.0 mi ESE 3.5 mph - N/A   Scattered Clouds
1:04 AM 37.4 °F 34.9 °F 35.6 °F 93% 30.18 in 1.8 mi ESE 3.5 mph - N/A   Scattered Clouds
1:13 AM 35.6 °F 31.7 °F 35.6 °F 100% 30.17 in 1.0 mi East 4.6 mph - N/A   Scattered Clouds
1:23 AM 35.6 °F 31.7 °F 35.6 °F 100% 30.18 in 0.8 mi East 4.6 mph - N/A   Partly Cloudy
1:34 AM 35.6 °F 30.7 °F 35.6 °F 100% 30.17 in 1.2 mi East 5.8 mph - N/A   Clear
1:57 AM 35.1 °F 31.0 °F 35.1 °F 100% 30.18 in 1.5 mi East 4.6 mph - N/A   Clear
2:10 AM 35.6 °F 32.8 °F 35.6 °F 100% 30.17 in 1.0 mi ENE 3.5 mph - N/A   Clear
2:17 AM 35.6 °F 32.8 °F 35.6 °F 100% 30.18 in 1.2 mi East 3.5 mph - N/A   Clear
2:57 AM 35.1 °F 32.2 °F 35.1 °F 100% 30.20 in 2.0 mi East 3.5 mph - N/A   Overcast
3:09 AM 35.6 °F 30.7 °F 35.6 °F 100% 30.20 in 3.0 mi NNE 5.8 mph - N/A   Overcast
3:14 AM 35.6 °F 32.8 °F 35.6 °F 100% 30.20 in 10.0 mi ENE 3.5 mph - N/A   Overcast
3:36 AM 35.6 °F 29.2 °F 35.6 °F 100% 30.20 in 10.0 mi NE 8.1 mph - N/A   Overcast
3:57 AM 35.1 °F 30.1 °F 35.1 °F 100% 30.21 in 10.0 mi NE 5.8 mph - N/A   Overcast
4:26 AM 35.6 °F 29.9 °F 35.6 °F 100% 30.20 in 2.0 mi NE 6.9 mph - N/A   Overcast
4:29 AM 35.6 °F 29.9 °F 35.6 °F 100% 30.20 in 1.5 mi NE 6.9 mph - N/A   Overcast
4:49 AM 35.6 °F 29.9 °F 35.6 °F 100% 30.20 in 1.0 mi NE 6.9 mph - N/A   Overcast
4:57 AM 35.6 °F 29.9 °F 35.6 °F 100% 30.20 in 1.2 mi NE 6.9 mph - N/A   Overcast
5:04 AM 35.6 °F 29.9 °F 35.6 °F 100% 30.20 in 2.0 mi NE 6.9 mph - N/A   Overcast
5:10 AM 35.6 °F 29.9 °F 35.6 °F 100% 30.20 in 4.0 mi NE 6.9 mph - N/A   Overcast
5:57 AM 35.1 °F 31.0 °F 35.1 °F 100% 30.22 in 10.0 mi NE 4.6 mph - N/A   Overcast
6:57 AM 36.0 °F 31.1 °F 35.1 °F 97% 30.22 in 10.0 mi NE 5.8 mph - N/A   Clear
7:57 AM 35.1 °F 28.6 °F 35.1 °F 100% 30.22 in 9.0 mi North 8.1 mph - N/A   Scattered Clouds
8:57 AM 36.0 °F 29.0 °F 35.1 °F 97% 30.22 in 10.0 mi NNE 9.2 mph - N/A   Mostly Cloudy
9:57 AM 36.0 °F 29.0 °F 36.0 °F 100% 30.23 in 10.0 mi NNE 9.2 mph - N/A   Partly Cloudy
10:57 AM 37.0 °F 30.4 °F 37.0 °F 100% 30.25 in 10.0 mi NNE 9.2 mph - 0.01 in   Clear
11:57 AM 39.0 °F 30.6 °F 37.9 °F 96% 30.25 in 10.0 mi NNE 15.0 mph - N/A   Clear
12:57 PM 39.9 °F 32.1 °F 39.9 °F 100% 30.25 in 10.0 mi NNE 13.8 mph - N/A   Clear
1:57 PM 41.0 °F 32.5 °F 37.9 °F 89% 30.25 in 10.0 mi NNE 17.3 mph - N/A   Clear
2:57 PM 42.1 °F 33.6 °F 37.9 °F 85% 30.24 in 10.0 mi NNE 18.4 mph - N/A   Clear
3:41 PM 41.0 °F 31.4 °F 37.4 °F 87% 30.23 in 10.0 mi NNE 21.9 mph - N/A   Mostly Cloudy
3:57 PM 41.0 °F 31.4 °F 37.9 °F 89% 30.24 in 10.0 mi NNE 21.9 mph - N/A   Overcast
4:15 PM 41.0 °F 31.4 °F 37.4 °F 87% 30.22 in 10.0 mi NNE 21.9 mph - N/A   Scattered Clouds
4:34 PM 39.2 °F 28.7 °F 37.4 °F 93% 30.22 in 10.0 mi North 23.0 mph 26.5 mph N/A   Mostly Cloudy
4:38 PM 39.2 °F 29.0 °F 37.4 °F 93% 30.21 in 10.0 mi NNE 21.9 mph - N/A   Scattered Clouds
4:57 PM 39.9 °F 30.0 °F 37.0 °F 89% 30.23 in 10.0 mi NNE 21.9 mph 27.6 mph N/A   Scattered Clouds
5:54 PM 39.2 °F 29.6 °F 37.4 °F 93% 30.22 in 10.0 mi NNE 19.6 mph - N/A   Mostly Cloudy
5:57 PM 39.9 °F 30.5 °F 37.0 °F 89% 30.23 in 10.0 mi NNE 19.6 mph - N/A   Mostly Cloudy
6:57 PM 39.0 °F 29.0 °F 37.0 °F 93% 30.22 in 10.0 mi NNE 20.7 mph 26.5 mph N/A   Overcast
7:10 PM 39.2 °F 28.7 °F 35.6 °F 87% 30.21 in 10.0 mi North 23.0 mph 28.8 mph N/A   Overcast
7:41 PM 37.4 °F 26.4 °F 37.4 °F 100% 30.23 in 10.0 mi NNE 23.0 mph 29.9 mph N/A   Overcast
7:57 PM 37.9 °F 27.6 °F 36.0 °F 93% 30.25 in 10.0 mi NNE 20.7 mph - N/A   Mostly Cloudy
8:17 PM 37.4 °F 27.2 °F 35.6 °F 93% 30.24 in 10.0 mi NNE 19.6 mph - N/A   Overcast
8:35 PM 37.4 °F 27.2 °F 35.6 °F 93% 30.24 in 10.0 mi NNE 19.6 mph 27.6 mph N/A   Overcast
8:57 PM 37.9 °F 27.3 °F 36.0 °F 93% 30.24 in 10.0 mi North 21.9 mph - N/A   Overcast
9:57 PM 37.0 °F 25.9 °F 36.0 °F 96% 30.25 in 10.0 mi North 23.0 mph - 0.00 in Rain Light Rain
10:04 PM 37.4 °F 26.4 °F 35.6 °F 93% 30.24 in 10.0 mi North 23.0 mph - 0.00 in Rain Light Rain
10:13 PM 37.4 °F 26.6 °F 35.6 °F 93% 30.24 in 10.0 mi North 21.9 mph - 0.00 in   Overcast
10:49 PM 37.4 °F 26.6 °F 35.6 °F 93% 30.24 in 10.0 mi North 21.9 mph 26.5 mph 0.00 in   Overcast
10:57 PM 37.0 °F 25.6 °F 36.0 °F 96% 30.25 in 10.0 mi North 24.2 mph - 0.00 in   Overcast
11:10 PM 37.4 °F 26.4 °F 35.6 °F 93% 30.25 in 10.0 mi NNE 23.0 mph - 0.00 in   Overcast
11:25 PM 37.4 °F 26.6 °F 35.6 °F 93% 30.26 in 10.0 mi North 21.9 mph 27.6 mph 0.00 in   Overcast
11:51 PM 37.4 °F 26.9 °F 35.6 °F 93% 30.26 in 10.0 mi NNE 20.7 mph - 0.00 in   Overcast
11:57 PM 37.4 °F 26.9 °F 35.6 °F 93% 30.26 in 10.0 mi NNE 20.7 mph - 0.00 in   Overcast